Location: Anjeux
(47.8815°N, 6.2076°E)
Time: 23:20:00
(UTC+00:00)

ISS - Pass Details

Date: 01 October 2021
Orbit: 417 x 423 km, 51.6° (Epoch: 20 October)

Event Time Altitude Azimuth Distance (km) Brightness Sun altitude
Rises 18:05:45 0° 292° (WNW) 2,367 1.8 -9.5°
Reaches altitude 10° 18:07:51 10° 295° (WNW) 1,502 0.4 -9.8°
Maximum altitude 18:11:13 70° 20° (NNE) 451 -3.7 -10.4°
Enters shadow 18:13:43 17° 102° (ESE) 1,153 -2.2 -10.8°
